CAPE
1517 1882 2158 2096 2583 2186 2024 2520 2086 1861 2072 2397 2285 2269 2210 2232 2232 2949 2423 2560 2386 2980 2606 2588 2724 2668 2621 3018 2206 3049 4002 3478 3264 4010 4163 4300 4149 4510 4897 4362 4384 4605 4707 4079 3210 3212 4180 3803 3729 3554 3906 3827 3863 3109 2363 2232 2524 3102 3370 4125 3976 4750 4745 4684 4815 4315 4164 3963 3732 3031 2364 2558 1777 2257 2918 3058 2869 2860 2575 2472 3078 2835 2390 2081 1864
1550 1796 1823 1632 1160 1718 1858 1913 2174 2066 1709 2471 2600 1587 1671 2492 2695 2367 2190 2750 2265 1869 2268 2302 2734 2770 1883 2214 2728 3004 3516 3778 2797 3188 3924 4044 3979 3294 3882 4767 4727 4565 4347 4425 4222 3540 3522 4534 4597 3928 4137 3623 3248 2292 2149 1465 983 1900 3399 2841 4307 3568 5984 4382 3996 4717 3819 3958 4105 3863 3235 2617 2283 3233 3271 3522 2914 3119 2851 2633 2150 2251 1986 1417 1284
1494 2057 1776 1568 1721 1385 1575 1903 2001 1906 1929 2180 1548 1650 2085 1856 2038 2372 1834 1925 2633 2227 1737 1736 3031 3004 2636 2991 3025 3113 3952 3145 3119 3365 3821 4164 3898 3111 1912 3590 4057 3533 3509 3833 3237 3590 3719 3737 3403 3430 2658 2455 2786 2373 1789 2010 1983 2242 1883 2311 2874 2832 3254 4850 4879 4609 4083 3858 3812 3340 3139 3763 3377 3190 3374 3176 3257 3377 3693 3548 1732 1151 1128 1322 1332
2140 2239 2142 1758 837 1169 1623 1579 1266 1210 1415 1614 1726 1748 1760 1569 2187 2015 1475 1719 1993 2363 1681 1569 3056 3344 2902 3618 3744 3498 3620 3260 2892 2928 3805 3809 3808 4013 3572 3094 3567 3503 3481 3207 3026 3341 3039 3401 2829 2633 1844 2848 2462 2969 2814 2327 2295 3021 2326 3632 3616 3051 3651 3909 4548 3874 4129 3879 4150 3966 3825 3834 4012 3619 3263 2975 2796 2764 2351 1841 2100 1862 1691 1598 1195
2304 2407 2017 1860 1051 1152 914 912 960 1033 1058 1036 1842 1626 1515 1782 2006 1854 1496 1681 1636 1556 2686 2358 2967 3602 2262 2790 3342 3352 3592 3546 3379 2485 2329 2888 3440 3040 3424 3607 3622 4094 3927 3912 3595 4205 3750 3552 3322 3358 3196 2898 2638 2770 2582 3000 2646 3091 3159 3566 3516 3765 3497 4553 3910 4449 4250 4045 3988 3927 4511 4186 3808 3661 3621 2862 3153 2882 3230 3200 2595 1984 2369 2154 1193
2461 2691 2080 1983 2244 1304 803 684 667 752 750 765 670 1044 1269 1214 1476 1456 1534 1285 1396 1490 1912 2312 2739 3665 3178 2799 3383 3732 3636 4088 3954 3421 2192 2180 3023 3068 3077 3587 3140 3300 3150 2881 3271 3284 2888 3030 2965 2517 2539 2576 2502 3180 3358 3575 3079 3248 3106 2966 3292 3990 5083 4255 4448 4420 4334 4077 4167 4309 4683 4406 3400 3015 3328 3369 2710 1944 2006 2132 2156 2132 2500 2541 1477
2700 3078 2581 2372 2572 2288 1096 760 918 430 591 439 357 364 813 828 1435 1664 1243 1373 1186 1598 1770 2162 3131 3392 3678 2761 2878 4065 4037 3694 4408 4096 3596 3471 2846 3512 2687 3233 3485 3249 3220 2898 2795 2214 2353 2623 2968 3105 2734 2688 2307 2338 2768 2760 1705 2478 3104 3482 3347 3442 3471 3262 3789 4235 4343 4123 3891 4146 3892 3419 2893 2309 2408 2371 2031 1595 1294 2080 2440 2552 2352 2606 2603
3324 3384 2936 2965 2987 2550 2690 2083 1477 1388 1102 1176 1081 419 268 378 627 1269 1294 1352 821 778 1551 1938 1410 2468 2851 2445 2706 3115 4064 3905 4069 4516 4289 3508 3284 3308 3406 3401 3245 2951 2478 3083 2543 1753 1968 1950 1342 1688 2221 2622 2517 2371 2565 2300 2734 2692 2759 2970 3497 3600 3745 3464 3501 3471 3133 2654 2663 2607 2850 2848 2772 2814 2656 2824 3070 2872 2658 1703 1332 1248 1927 3690 3536
3327 2613 3054 3230 3327 2793 2762 2898 2339 2147 2389 2748 1199 835 600 542 818 834 1180 1077 546 481 1394 996 1332 2051 2010 2286 2811 2472 2917 3612 3426 3463 4027 4451 3919 3007 2733 2810 2801 2912 2756 2098 1834 2195 1758 1165 665 500 1469 3278 2418 2855 2864 2709 2320 2466 3282 2838 3184 3125 3129 2974 2998 3200 3637 3455 3311 3401 3082 2890 3029 2830 2501 2654 2791 2950 1642 1340 1997 2552 1900 1523 2164
2934 2376 1917 1803 1883 2610 3277 2987 2565 2005 1708 2111 2421 2042 866 711 254 399 543 568 780 697 994 1068 768 1619 1563 2056 2234 2228 1680 2341 3015 2944 2976 3579 3537 3036 2665 2663 3082 2861 2942 3001 2177 1309 853 791 682 1158 1844 822 1801 4070 2007 1764 1728 1440 2789 3145 3958 4261 4356 4267 4111 3808 3680 3840 3416 2740 2356 2047 1492 936 1254 1119 704 690 1428 2118 2055 2296 2333 2562 2582
2029 1793 2117 1765 1181 1249 1483 2491 3022 3369 3373 2979 2900 2351 1592 736 1267 2246 1042 810 2123 2598 1482 608 172 238 657 1637 1576 1832 1145 894 902 1800 2099 2604 3299 3444 3097 3175 2871 2472 2866 3278 2968 2597 2006 1493 932 2415 3437 3669 4074 2903 2202 1804 2350 2133 1936 1987 3191 3504 3136 2978 2846 3020 3186 3083 2808 2427 1742 1713 1920 1810 1636 946 964 2144 2320 2724 2727 2757 3010 2879 2716
1948 2548 2539 2264 2043 2014 2122 2330 2045 2030 2771 2969 2592 2409 1974 2099 1848 1522 826 597 857 1306 1316 1444 1702 1479 807 906 174 997 929 877 925 1342 1489 1826 2475 3316 2603 2433 2192 2306 2504 2617 2599 1899 1701 1428 1277 908 635 3490 3236 4117 3484 2990 2441 2507 2205 2159 2195 2172 2003 2316 2772 2948 2831 2617 2669 2644 2386 2277 2432 2174 1715 1655 2671 2410 2760 2942 3070 3226 3245 3142 2944
1765 2072 2244 2228 2321 2445 2230 2486 2198 1960 1969 2413 2882 2291 2584 2684 2180 1417 1313 1427 1634 1728 1870 1720 1735 1675 1719 1704 1112 740 934 508 878 937 1241 1546 1755 1876 1794 1384 823 645 1299 1816 2015 2127 2214 2831 2175 1822 2115 3149 2618 3704 4015 4828 4078 3071 2325 2287 2459 2284 2349 2335 1632 2099 2184 2325 2220 1928 2079 2165 2530 2858 2857 2989 3567 2928 2814 2830 3124 3455 3513 3262 3029
1595 1759 1808 1509 1713 1767 1608 1563 1778 1944 1736 2018 2393 2391 2485 2243 2127 1594 1487 1365 1634 1474 1576 1668 1805 1633 1467 1695 1392 1016 829 907 855 1053 1133 1244 1455 1543 1456 1282 1419 1175 1334 1351 894 1519 2581 2336 2030 1654 2283 1614 1853 2010 3057 4217 3785 3303 3186 3286 3469 3731 3730 3429 3661 3422 2445 1781 1710 1989 2460 3124 3354 3228 3417 3535 3553 3485 2854 2291 2300 2224 2319 2354 2398
1592 1815 1821 1746 1339 1347 1421 1238 1194 1333 1489 1611 1673 1645 1591 1644 1745 1857 1588 1408 1564 1614 1539 1610 1543 1566 1413 1352 903 936 1117 1045 942 940 1052 1155 1204 1196 1550 1543 1493 1340 1173 1647 1728 1993 2416 2603 2018 2099 2232 1646 1969 1961 1791 2157 3351 3571 3633 3216 2909 2972 3035 3233 3451 3639 3455 2934 2300 2028 1701 2102 2603 3098 3381 2651 2366 2386 2635 2694 2624 2518 2588 2586 2443
1288 1622 1470 1294 986 1066 1119 1199 1248 1083 1384 1380 1383 1449 1562 1555 1519 1559 1605 1495 1215 1233 1452 1297 1245 1248 1484 1533 1032 876 858 1120 1071 973 943 970 977 1607 2090 2338 1937 1742 1036 2464 2377 2424 2543 2496 2598 2310 1481 1456 1663 1940 2015 1879 2224 2807 3072 2686 2616 2296 1975 1425 1245 1142 1507 1828 2475 2720 2281 2078 1955 1808 1346 1222 1361 2158 1843 1839 2057 2414 2528 2506 2456
853 1085 1279 1193 874 736 1009 1036 1052 1053 770 801 973 1024 1014 1298 1297 1328 976 1018 996 1109 1294 1277 1147 1090 1172 1208 1144 1105 1045 1123 1282 1304 1184 1153 1175 1368 2050 2315 2488 2128 2838 2176 2081 2066 1543 1377 1619 1623 1776 1832 1706 1664 1664 1610 1638 1934 2123 1887 1827 1751 1861 1453 1729 1896 1979 1980 1795 1728 1944 1938 1857 2024 2099 1960 1943 2089 1976 2082 2325 2316 2320 2233 2027
337 371 383 385 411 410 447 515 578 657 660 712 718 794 996 926 645 755 790 822 872 896 933 901 974 1002 1043 1131 1034 979 1072 1065 1177 1348 1445 1402 1327 1249 1958 1976 2222 2506 2162 1770 1899 1591 1039 949 1068 1144 1149 1216 1396 1499 1581 1471 1252 1416 1555 1484 1669 1530 1875 1564 1506 1473 1793 1939 2037 2027 2126 2190 2539 2587 2238 1420 1502 1748 1877 1956 1846 1619 1800 1859 1832
157 181 196 301 348 340 372 387 388 330 357 337 386 456 423 358 408 484 569 599 644 730 750 768 767 747 774 665 687 764 790 922 1000 1114 1157 1088 1015 998 1889 1788 1870 2013 1603 1869 1490 1507 1029 1032 1063 1082 1171 1204 1186 1231 1210 1070 908 784 911 1003 1148 1463 1387 1329 1273 1174 1347 1478 1722 2086 2212 2621 3254 2574 2664 2068 1304 1486 1374 1572 1618 1735 1519 1408 1333
150 201 154 151 218 273 260 277 303 319 281 239 259 276 272 313 351 357 384 376 398 442 410 438 386 328 432 484 576 651 650 626 659 785 865 878 824 719 673 926 1079 1181 1204 1078 1064 1057 1360 959 931 846 892 932 953 980 951 894 866 830 756 694 900 942 787 712 722 716 764 783 1158 1559 1908 1962 1712 1681 1738 1341 1538 1976 1490 1152 1291 1806 1142 1099 1004
236 101 106 130 159 250 272 304 278 224 198 216 264 271 300 293 300 306 222 215 179 201 148 239 207 194 155 217 404 400 496 524 529 534 575 640 672 623 565 716 826 857 880 963 872 821 864 849 727 636 684 748 691 621 553 533 547 567 543 507 456 408 391 401 414 413 463 1014 1370 1383 1578 894 928 961 1328 1004 983 1162 1226 1492 1027 1492 2093 1592 1237
0 0 72 64 54 82 73 74 107 140 143 154 131 95 117 131 151 134 138 155 151 117 38 42 66 134 151 186 198 249 284 341 448 497 483 492 515 538 479 473 473 539 1333 700 633 654 620 584 598 575 552 582 575 489 412 330 280 293 316 308 298 300 289 260 254 440 715 888 934 958 1275 1065 532 926 1248 982 796 1065 1740 500 1305 2687 2481 1752 1620
1 4 4 14 22 31 21 0 0 1 53 119 176 129 104 62 15 9 2 0 0 1 5 7 20 36 52 61 57 102 220 344 391 395 382 383 365 348 342 335 325 330 352 362 340 352 348 286 270 244 291 289 293 299 279 244 196 176 147 130 111 90 39 31 406 944 361 345 520 797 905 1558 1166 837 1672 1065 626 105 85 164 382 883 1184 1115 1328
1 4 1 0 2 11 8 0 0 1 12 58 140 136 134 147 168 109 44 54 11 9 17 18 32 35 30 20 24 19 7 44 105 156 168 175 164 160 162 143 123 112 91 83 75 65 44 46 55 72 70 65 60 40 0 0 0 0 0 0 0 0 0 143 128 43 89 200 224 35 2 13 0 0 0 0 0 6 129 104 53 93 101 217 337
0 0 0 0 0 0 0 45 25 10 11 17 12 10 31 24 20 21 11 16 14 18 55 80 128 122 92 99 61 18 0 0 0 0 0 4 12 11 0 0 0 0 0 0 0 0 0 0 0 0 0 0 0 0 0 0 0 0 0 0 0 0 159 37 10 2 154 44 0 0 0 0 0 0 0 0 29 56 11 2 14 12 38 2 0
0 0 0 0 0 0 0 0 1 7 12 40 7 53 38 41 21 1 2 0 1 22 14 1 0 1 12 108 135 83 39 14 11 3 7 2 0 0 0 0 0 0 0 0 0 0 0 0 0 0 0 0 0 0 0 162 48 0 0 0 0 0 0 0 0 0 0 0 0 0 0 0 0 0 0 0 0 1 8 2 0 0 0 0 0
0 0 0 0 0 0 1 0 0 0 0 0 3 16 56 3 0 47 87 17 14 16 1 0 43 6 0 0 77 138 62 27 0 0 0 0 0 0 0 0 0 0 0 0 0 0 0 0 0 0 0 0 0 0 0 0 0 0 0 0 0 0 0 0 0 0 0 0 0 0 0 0 0 0 0 0 0 0 0 0 0 0 0 0 0
0 0 0 0 0 0 0 0 0 0 1 2 1 0 0 0 0 0 0 0 0 0 7 0 1 0 174 6 59 28 0 0 0 0 0 0 0 0 0 0 0 0 0 0 0 0 0 0 0 37 26 156 240 380 44 2 3 0 0 0 0 0 0 0 0 0 0 0 0 0 0 0 0 0 0 0 0 0 0 0 0 0 0 0 0
0 0 0 0 0 0 0 0 0 0 0 0 0 0 0 0 0 0 0 0 0 0 0 0 0 0 0 0 0 0 0 0 0 0 0 0 0 0 0 0 0 0 0 0 0 0 0 0 6 8 1 0 0 0 0 0 0 0 0 0 0 0 0 0 0 0 0 0 0 0 0 0 0 0 0 0 0 0 0 0 1 1 0 0 0
0 0 0 0 0 0 0 0 15 28 0 0 0 0 0 0 0 0 0 0 0 0 0 0 0 0 0 0 0 0 0 0 0 0 0 0 0 0 0 0 0 0 0 0 0 0 0 0 2 1 0 0 0 0 0 0 0 0 0 0 0 0 0 0 0 0 0 0 0 0 0 0 0 0 0 0 0 0 0 0 0 0 0 0 0
3 0 0 0 0 1 0 0 1 26 18 4 0 0 0 0 0 0 0 0 0 0 0 0 0 0 0 0 0 0 0 0 0 0 0 0 0 0 0 0 0 0 0 0 0 0 0 0 0 0 1 0 0 0 0 0 0 0 0 0 0 0 0 0 0 0 0 0 0 0 0 0 0 0 0 0 0 0 0 0 0 0 0 0 0
17 4 0 0 2 0 0 0 0 0 0 2 4 0 0 0 0 0 0 0 0 0 0 0 0 0 0 0 0 0 0 0 0 0 0 0 0 0 0 0 0 0 0 0 0 0 0 1 3 5 2 0 0 0 0 0 0 0 0 0 0 0 0 0 0 0 0 2 0 0 0 0 0 0 0 0 0 0 0 0 0 0 0 0 1
5 0 0 0 0 0 0 0 0 0 1 0 0 0 0 6 0 0 0 0 0 0 0 0 0 0 0 0 0 0 0 0 0 0 0 0 0 0 0 0 0 0 0 0 0 0 1 2 4 2 1 0 0 0 0 0 0 0 0 0 0 0 0 4 0 6 2 1 0 0 0 0 0 0 0 0 0 0 0 0 0 0 1 0 0
0 0 0 0 0 0 0 0 0 0 1 0 1 0 0 0 10 1 0 0 0 0 0 0 0 0 0 0 0 0 0 0 0 0 0 0 0 0 0 0 0 0 0 0 0 0 0 0 0 1 0 1 2 2 1 2 3 2 2 2 0 3 11 1 0 3 0 0 0 0 0 0 0 0 0 0 0 0 0 0 0 0 0 0 0
0 0 1 12 0 0 0 0 0 0 0 0 16 0 0 22 0 0 3 2 0 0 0 0 0 0 0 0 0 0 0 0 0 0 0 0 0 0 0 0 0 3 0 0 0 0 2 11 7 11 10 14 12 5 6 4 6 6 5 3 2 5 1 0 1 3 0 0 0 2 1 0 1 2 0 0 0 0 0 0 0 0 0 0 1
0 0 0 0 0 0 0 14 1 1 0 0 0 0 0 0 0 0 0 0 0 4 3 0 0 0 0 0 0 0 0 0 0 0 0 0 0 0 0 0 0 0 0 5 3 11 16 12 4 8 6 4 8 13 8 8 4 2 4 2 4 1 0 0 0 0 0 2 2 1 1 1 1 0 0 0 0 0 0 1 1 0 0 0 0
0 0 0 0 0 0 0 0 0 0 0 0 0 0 0 0 0 0 0 2 3 0 21 9 3 0 0 0 0 0 0 0 0 0 0 0 0 0 0 0 0 0 0 0 2 2 1 7 12 6 3 6 6 4 3 2 4 2 2 8 8 3 0 0 0 2 5 0 0 2 3 0 0 0 0 0 0 0 0 0 0 0 0 0 0
2 0 0 0 0 0 0 0 0 0 0 0 0 0 0 0 0 0 0 0 1 4 2 17 14 5 0 0 0 0 0 0 0 0 0 0 0 0 0 0 0 0 0 10 27 61 27 12 5 9 4 0 0 0 0 0 0 0 0 0 1 3 3 3 6 14 7 5 2 1 0 0 0 0 0 0 0 0 0 0 0 0 0 0 0
0 0 0 0 0 0 0 0 0 0 0 0 0 0 0 0 0 0 0 0 0 0 0 0 0 0 10 20 3 0 0 2 0 0 0 0 0 0 0 0 2 14 13 2 3 1 0 0 0 1 5 1 0 0 0 0 0 1 6 1 0 0 0 0 0 2 0 0 1 2 3 4 4 1 0 0 0 0 0 0 0 0 0 0 0
0 0 0 0 0 0 0 0 0 0 0 0 0 0 0 0 0 0 0 0 0 0 0 0 2 2 0 0 0 0 0 0 0 0 0 0 0 0 0 3 2 3 3 0 0 0 0 0 0 0 0 0 0 0 0 0 0 0 2 3 3 1 1 0 0 0 0 0 0 0 0 0 0 0 0 0 0 0 0 0 0 0 0 0 0
0 0 0 0 0 0 0 0 0 0 0 0 0 0 0 0 0 0 0 0 0 0 0 0 1 0 0 0 0 0 0 0 0 0 0 0 0 0 0 0 0 0 0 0 0 0 0 0 0 0 0 0 0 0 0 0 0 0 0 0 0 0 0 0 0 0 0 0 0 0 0 0 0 0 0 0 0 0 0 0 0 0 0 0 0
0 0 0 0 0 0 0 0 0 0 0 0 0 0 0 0 0 0 0 0 0 0 0 0 0 0 0 0 0 0 0 0 0 0 0 0 0 0 0 0 0 4 0 0 0 0 0 0 0 0 0 0 0 0 0 0 1 1 2 1 0 0 0 0 0 1 0 0 0 0 0 0 0 0 0 0 0 0 0 0 0 0 0 0 0
0 0 0 0 0 0 0 0 0 0 0 0 0 0 0 0 0 0 0 0 0 0 0 0 0 0 0 0 0 0 0 0 0 0 0 0 0 0 0 0 0 0 0 0 0 0 1 0 0 0 0 0 0 0 0 0 2 1 2 5 5 6 3 0 0 0 0 0 0 0 0 0 0 0 0 0 0 0 0 0 0 0 0 0 0
0 0 0 0 0 0 0 0 0 0 0 0 0 0 0 0 0 0 0 0 0 0 0 0 0 0 0 0 0 0 0 0 0 0 0 0 0 0 0 0 0 0 0 0 0 0 0 0 0 0 0 0 0 2 3 5 3 0 3 1 5 0 1 1 0 0 0 0 0 0 0 0 0 0 0 0 0 0 0 0 0 0 0 0 0
0 0 0 0 0 0 0 0 0 0 0 0 0 0 0 0 0 0 0 0 0 0 0 0 0 0 0 0 0 0 0 0 0 0 0 0 0 0 0 0 0 1 0 0 0 0 3 2 0 0 0 0 1 2 1 1 1 0 0 0 2 3 3 2 0 0 0 0 0 0 0 0 0 0 0 1 1 2 0 2 2 3 2 3 2
0 2 0 0 0 0 0 0 0 0 0 0 0 0 0 0 0 0 0 0 0 0 0 0 0 0 0 0 0 0 0 0 0 0 0 0 0 0 0 0 0 0 0 0 2 6 3 3 0 0 0 1 0 0 0 0 1 1 1 1 1 2 2 2 0 0 1 0 0 0 0 0 0 0 0 0 0 2 1 2 4 3 3 3 3
6 22 0 0 0 0 0 0 0 0 0 0 0 0 0 0 0 0 0 0 0 0 0 0 0 0 0 0 0 0 0 0 0 0 0 0 0 0 0 0 0 0 1 0 0 1 4 9 6 0 0 0 2 4 4 2 0 3 3 3 0 2 1 1 0 1 0 1 0 0 0 0 0 0 0 0 0 0 1 5 5 6 7 8 8
0 0 0 0 0 0 0 0 0 0 0 0 0 0 0 0 0 0 0 0 0 0 0 0 0 0 0 0 0 0 0 0 0 0 0 0 0 0 1 0 0 0 0 0 0 1 1 2 5 4 4 5 5 4 3 3 9 14 1 1 0 2 3 3 3 1 0 0 0 0 1 1 0 0 0 0 1 2 4 0 6 2 3 15 1
0 0 0 0 0 0 0 0 0 0 0 0 0 0 0 0 0 0 0 0 0 0 0 0 0 0 0 0 0 0 0 0 0 0 0 0 0 0 2 4 1 0 0 1 2 3 4 3 7 1 0 3 2 4 4 6 1 1 1 1 0 2 4 2 1 0 1 3 1 0 0 0 0 0 2 2 1 0 1 2 0 1 14 7 1
4 0 0 0 0 0 0 0 0 0 0 0 0 0 0 0 0 0 0 0 0 0 0 0 0 0 0 0 0 0 0 0 0 0 0 0 0 2 1 4 4 0 0 3 2 2 4 7 11 1 1 16 11 3 2 2 2 1 2 3 5 8 5 2 3 3 1 0 0 0 0 0 0 2 0 0 0 1 1 1 1 2 2 2 2
0 0 0 0 0 0 0 7 12 12 5 0 0 0 0 0 0 0 0 0 0 0 0 0 0 0 0 0 0 0 0 0 0 0 0 0 1 3 3 3 4 8 9 2 2 2 1 3 4 4 4 4 4 4 3 3 2 4 3 3 4 5 4 3 1 0 0 0 0 0 0 0 2 0 0 0 0 0 4 14 5 2 2 1 2
Wind_Speed
12 11 10 9 11 8 8 8 6 10 10 8 8 8 9 9 12 9 10 10 11 9 8 7 9 7 6 5 4 5 4 3 3 4 3 2 1 1 3 4 4 5 5 4 4 5 5 4 4 4 4 4 4 3 3 5 5 5 6 7 7 8 8 10 8 6 7 7 7 7 6 7 6 7 8 7 6 6 5 5 5 5 5 6 7
15 13 12 11 11 10 9 9 8 9 9 10 8 8 10 11 11 11 7 9 8 8 7 7 6 6 4 5 5 4 5 2 4 4 4 3 3 4 6 6 4 4 3 3 5 3 4 6 7 5 7 8 6 6 6 4 6 10 8 6 7 7 10 12 10 10 8 8 7 9 6 7 7 10 8 7 7 7 6 6 5 6 7 6 4
18 17 14 14 13 12 11 12 10 9 9 11 8 10 9 9 9 10 8 9 9 7 7 7 9 7 4 7 7 7 5 5 4 5 5 5 4 2 4 7 6 5 5 6 4 5 5 5 6 7 7 8 10 9 6 5 5 5 6 11 10 11 10 11 14 13 11 10 10 8 8 9 9 8 9 8 8 8 7 7 5 4 5 5 5
20 19 17 15 13 14 13 13 11 10 10 10 9 11 9 9 10 9 7 11 10 9 9 9 12 9 8 10 5 8 7 6 6 6 7 6 6 5 5 6 4 4 4 4 6 5 4 5 5 5 6 5 7 6 6 6 6 8 9 7 7 7 7 11 12 12 11 10 12 11 10 9 9 8 9 10 8 7 6 6 7 6 4 3 5
23 22 20 17 17 15 14 13 12 12 11 11 12 10 12 13 11 9 8 8 11 11 12 11 12 12 8 9 8 8 10 8 8 6 8 9 9 7 7 8 8 7 5 5 4 5 6 6 5 6 5 6 7 8 8 8 9 9 8 9 11 11 10 11 11 12 11 10 10 12 10 9 9 9 10 10 9 9 8 7 6 6 7 7 4
25 25 22 20 19 17 17 15 13 13 12 11 12 14 15 13 14 11 9 11 13 12 13 12 13 13 10 10 10 10 10 10 9 8 7 9 11 9 7 7 6 6 6 6 7 7 6 7 7 7 6 7 8 9 9 8 8 10 12 10 9 9 10 9 9 10 11 11 11 10 11 10 9 8 8 8 7 6 6 6 6 6 7 8 10
26 26 24 22 21 20 19 18 17 15 15 14 14 15 16 15 19 11 12 11 12 15 12 14 16 13 11 11 11 12 12 11 10 10 9 8 9 9 8 7 8 7 7 6 7 6 7 7 7 9 9 7 7 9 9 11 10 10 9 9 11 11 11 11 10 10 10 10 10 11 10 10 8 4 5 5 5 5 5 5 6 7 8 11 11
26 26 25 23 24 22 22 22 20 20 20 19 17 16 16 16 17 19 18 15 13 14 18 18 16 12 12 12 14 15 11 11 11 11 10 8 9 10 11 10 8 7 7 9 8 7 8 8 8 10 10 10 9 9 9 10 11 10 11 11 11 11 10 9 8 7 7 7 7 6 7 7 6 7 6 4 4 3 5 6 5 8 9 14 15
35 30 26 24 26 25 23 23 23 23 23 23 20 19 19 19 19 19 19 17 15 13 22 21 14 15 18 16 16 17 12 12 13 13 12 10 10 9 11 11 9 9 10 10 10 11 9 7 6 8 13 14 10 8 11 17 15 13 12 12 12 12 11 10 9 8 7 7 6 7 6 6 6 6 4 5 6 6 7 10 11 11 13 14 16
34 28 28 30 31 27 25 25 25 25 25 24 25 24 21 20 19 19 20 19 19 19 19 22 20 21 17 17 17 18 17 17 15 11 7 13 11 11 13 14 12 12 10 13 11 10 9 7 7 6 13 7 12 14 12 11 13 12 14 14 14 13 13 13 12 11 10 9 9 9 8 8 8 9 9 9 8 10 12 13 13 13 14 15 17
28 27 31 31 29 32 31 27 28 29 31 33 30 29 28 25 27 28 25 24 22 24 22 22 21 20 19 21 22 17 23 23 22 8 13 14 14 16 15 15 15 14 13 15 15 13 12 12 11 12 17 17 18 17 15 12 13 13 12 11 13 14 13 12 12 13 13 12 13 13 13 13 13 14 13 11 14 16 15 15 14 14 16 16 16
32 35 34 33 33 31 29 34 34 33 28 28 26 27 29 30 32 33 31 31 29 28 25 27 28 26 24 24 25 31 29 27 28 30 28 25 22 18 18 17 16 16 15 16 17 16 15 13 14 12 15 19 12 13 13 15 14 13 11 10 9 10 12 13 12 12 12 12 13 15 15 16 16 17 15 15 17 16 16 15 15 14 14 15 16
40 40 39 37 35 28 28 34 32 30 29 24 25 25 28 29 32 32 32 31 28 28 27 30 31 29 30 32 32 29 29 30 30 31 30 29 27 24 20 20 19 18 19 20 20 18 15 17 18 22 24 28 21 17 16 17 15 13 13 14 11 10 8 9 13 13 11 9 10 11 13 14 15 16 17 17 18 15 14 14 15 14 13 12 13
41 43 41 39 38 33 35 33 33 33 33 32 35 33 32 33 35 34 32 30 30 31 30 29 27 29 30 31 30 30 30 31 32 32 32 30 28 25 24 23 22 20 22 20 21 24 27 26 26 25 24 27 23 20 18 18 19 20 19 18 16 14 14 13 10 10 12 12 11 10 12 14 13 16 15 16 15 16 15 13 14 11 10 9 10
43 45 43 40 38 35 33 34 37 36 37 36 36 35 36 35 34 34 33 32 32 34 34 31 29 30 32 31 31 30 30 34 34 32 33 31 29 25 23 24 23 25 24 28 31 29 28 29 28 28 29 30 27 25 24 20 20 21 20 20 19 18 17 16 15 16 16 17 15 13 12 12 14 16 19 20 19 16 15 14 14 14 11 11 12
38 44 45 43 40 38 36 39 39 38 37 33 29 29 33 38 36 35 35 34 35 34 33 32 32 32 34 35 34 33 32 36 34 34 32 31 27 23 23 24 25 25 28 33 32 32 32 31 31 31 32 31 30 28 27 24 23 23 21 20 20 21 20 21 30 27 26 23 21 19 18 19 20 19 19 21 21 20 19 18 18 17 14 13 14
29 35 40 41 42 43 43 43 42 43 40 35 29 30 35 41 41 38 38 38 38 38 37 36 36 36 36 35 35 36 35 36 37 37 35 34 29 26 24 24 25 27 31 34 34 34 34 33 32 32 33 34 32 30 30 27 27 26 25 23 22 22 23 22 28 31 26 24 21 19 18 16 16 18 21 23 25 24 22 21 20 21 19 17 17
26 29 30 32 35 42 47 45 45 46 43 41 39 36 37 41 41 39 39 38 38 38 38 39 38 36 37 38 39 38 37 37 39 40 40 38 33 30 28 26 27 30 29 31 34 33 36 41 38 34 34 34 32 32 33 30 30 28 26 25 24 25 26 30 30 29 26 23 22 22 23 21 22 24 27 29 31 29 26 23 22 23 21 22 21
29 28 26 27 31 38 46 50 50 49 49 48 46 43 41 42 43 42 40 40 40 39 38 39 40 38 38 39 43 42 40 40 43 43 43 42 37 31 32 33 33 32 31 32 34 34 34 36 42 38 37 34 34 33 33 33 31 28 28 26 26 27 31 32 31 29 29 28 28 28 28 30 30 30 30 33 35 31 30 27 26 26 25 24 24
35 33 30 30 31 30 35 44 47 46 47 49 49 46 43 44 46 45 44 42 40 39 41 42 42 42 43 42 42 43 43 41 42 43 43 44 43 37 37 37 38 37 37 36 36 35 35 36 39 40 39 39 37 36 34 35 32 29 29 29 30 30 32 31 30 29 28 28 28 29 32 33 32 32 34 35 30 28 27 28 28 28 28 26 25
39 37 36 37 37 33 29 32 36 37 38 43 47 47 44 45 46 45 45 44 41 38 41 43 45 45 45 45 43 44 43 42 43 45 44 42 42 40 38 38 35 35 38 37 37 38 36 39 40 41 41 40 39 38 36 34 33 31 32 34 32 30 32 31 30 28 29 30 32 33 36 33 33 31 37 36 33 29 29 26 27 27 29 29 28
nan nan nan nan nan nan nan nan 32 31 31 34 38 nan 42 44 45 46 45 45 44 43 nan nan nan 47 45 42 41 43 44 44 40 41 43 42 41 41 39 39 37 33 36 38 41 41 42 42 40 39 39 36 34 33 33 33 33 33 33 32 28 31 33 32 31 31 34 36 36 36 35 34 35 35 38 36 34 31 30 30 29 30 32 32 31
nan nan nan nan nan nan nan nan nan nan nan 33 33 32 32 nan nan nan nan nan nan nan nan nan nan nan nan nan nan 41 42 42 40 39 42 46 46 45 44 43 44 43 41 43 43 44 43 42 38 37 35 34 32 28 28 29 31 35 33 31 30 nan nan nan 32 35 37 35 35 36 36 36 36 37 38 40 38 38 nan 32 32 33 34 34 34
nan nan nan nan nan nan nan nan nan nan nan nan 31 32 32 30 30 34 nan nan nan nan nan nan nan nan nan nan nan nan nan nan 44 45 45 48 50 51 49 47 47 45 nan nan nan nan nan nan nan nan nan nan nan nan nan nan nan nan nan nan nan nan nan 32 35 nan nan 33 34 nan nan nan nan nan nan nan nan nan 35 35 nan nan 36 34 35
nan nan nan nan nan nan nan nan nan nan nan nan nan nan nan nan nan nan nan nan nan nan nan nan 35 40 nan nan nan nan nan nan nan nan nan nan nan nan nan nan nan nan nan nan nan nan nan nan nan nan nan nan nan nan nan nan nan nan nan nan nan nan 35 nan nan nan 33 nan nan nan nan nan nan nan nan nan nan nan nan nan nan nan nan nan nan
nan nan nan nan nan nan nan nan nan nan nan nan nan nan nan nan nan nan nan nan nan nan nan nan nan nan nan 40 41 nan nan nan nan nan nan nan nan nan nan nan nan nan nan nan nan nan nan nan nan nan nan nan nan nan nan 29 nan nan nan nan nan nan nan nan nan nan nan nan nan nan nan nan nan nan nan nan nan nan nan nan nan nan nan nan nan
nan nan nan nan nan nan nan nan nan nan nan nan nan nan nan nan nan nan nan nan nan nan nan nan nan nan nan nan nan 32 nan nan nan nan nan nan nan nan nan nan nan nan nan nan nan nan nan nan nan nan nan nan nan nan nan nan nan nan nan nan nan nan nan nan nan nan nan nan nan nan nan nan nan nan nan nan nan nan nan nan nan nan nan nan nan
nan nan nan nan nan nan nan nan nan nan nan nan nan nan nan nan nan nan nan nan nan nan nan nan nan nan 34 nan nan nan nan nan nan nan nan nan nan nan nan nan nan nan nan nan nan nan nan nan nan nan nan 27 26 27 nan nan nan nan nan nan nan nan nan nan nan nan nan nan nan nan nan nan nan nan nan nan nan nan nan nan nan nan nan nan nan
nan nan nan nan nan nan nan nan nan nan nan nan nan nan nan nan nan nan nan nan nan nan nan nan nan nan nan nan nan nan nan nan nan nan nan nan nan nan nan nan nan nan nan nan nan nan nan nan nan nan nan nan nan nan nan nan nan nan nan nan nan nan nan nan nan nan nan nan nan nan nan nan nan nan nan nan nan nan nan nan nan nan nan nan nan
nan nan nan nan nan nan nan nan nan nan nan nan nan nan nan nan nan nan nan nan nan nan nan nan nan nan nan nan nan nan nan nan nan nan nan nan nan nan nan nan nan nan nan nan nan nan nan nan nan nan nan nan nan nan nan nan nan nan nan nan nan nan nan nan nan nan nan nan nan nan nan nan nan nan nan nan nan nan nan nan nan nan nan nan nan
nan nan nan nan nan nan nan nan nan nan nan nan nan nan nan nan nan nan nan nan nan nan nan nan nan nan nan nan nan nan nan nan nan nan nan nan nan nan nan nan nan nan nan nan nan nan nan nan nan nan nan nan nan nan nan nan nan nan nan nan nan nan nan nan nan nan nan nan nan nan nan nan nan nan nan nan nan nan nan nan nan nan nan nan nan
nan nan nan nan nan nan nan nan nan nan nan nan nan nan nan nan nan nan nan nan nan nan nan nan nan nan nan nan nan nan nan nan nan nan nan nan nan nan nan nan nan nan nan nan nan nan nan nan nan nan nan nan nan nan nan nan nan nan nan nan nan nan nan nan nan nan nan nan nan nan nan nan nan nan nan nan nan nan nan nan nan nan nan nan nan
nan nan nan nan nan nan nan nan nan nan nan nan nan nan nan nan nan nan nan nan nan nan nan nan nan nan nan nan nan nan nan nan nan nan nan nan nan nan nan nan nan nan nan nan nan nan nan nan nan nan nan nan nan nan nan nan nan nan nan nan nan nan nan nan nan nan nan nan nan nan nan nan nan nan nan nan nan nan nan nan nan nan nan nan nan
nan nan nan nan nan nan nan nan nan nan nan nan nan nan nan nan nan nan nan nan nan nan nan nan nan nan nan nan nan nan nan nan nan nan nan nan nan nan nan nan nan nan nan nan nan nan nan nan nan nan nan nan nan nan nan nan nan nan nan nan nan nan nan nan nan nan nan nan nan nan nan nan nan nan nan nan nan nan nan nan nan nan nan nan nan
nan nan nan nan nan nan nan nan nan nan nan nan nan nan nan nan nan nan nan nan nan nan nan nan nan nan nan nan nan nan nan nan nan nan nan nan nan nan nan nan nan nan nan nan nan nan nan nan nan nan nan nan nan nan nan nan nan nan nan nan nan nan nan nan nan nan nan nan nan nan nan nan nan nan nan nan nan nan nan nan nan nan nan nan nan
nan nan nan nan nan nan nan nan nan nan nan nan nan nan nan nan nan nan nan nan nan nan nan nan nan nan nan nan nan nan nan nan nan nan nan nan nan nan nan nan nan nan nan nan nan nan nan nan nan nan nan nan nan nan nan nan nan nan nan nan nan nan nan nan nan nan nan nan nan nan nan nan nan nan nan nan nan nan nan nan nan nan nan nan nan
nan nan nan nan nan nan nan nan nan nan nan nan nan nan nan nan nan nan nan nan nan nan nan nan nan nan nan nan nan nan nan nan nan nan nan nan nan nan nan nan nan nan nan nan nan nan nan nan nan nan nan nan nan nan nan nan nan nan nan nan nan nan nan nan nan nan nan nan nan nan nan nan nan nan nan nan nan nan nan nan nan nan nan nan nan
nan nan nan nan nan nan nan nan nan nan nan nan nan nan nan nan nan nan nan nan nan nan nan nan nan nan nan nan nan nan nan nan nan nan nan nan nan nan nan nan nan nan nan nan nan nan nan nan nan nan nan nan nan nan nan nan nan nan nan nan nan nan nan nan nan nan nan nan nan nan nan nan nan nan nan nan nan nan nan nan nan nan nan nan nan
nan nan nan nan nan nan nan nan nan nan nan nan nan nan nan nan nan nan nan nan nan nan nan nan nan nan nan nan nan nan nan nan nan nan nan nan nan nan nan nan nan nan nan nan nan nan nan nan nan nan nan nan nan nan nan nan nan nan nan nan nan nan nan nan nan nan nan nan nan nan nan nan nan nan nan nan nan nan nan nan nan nan nan nan nan
nan nan nan nan nan nan nan nan nan nan nan nan nan nan nan nan nan nan nan nan nan nan nan nan nan nan nan nan nan nan nan nan nan nan nan nan nan nan nan nan nan nan nan nan nan nan nan nan nan nan nan nan nan nan nan nan nan nan nan nan nan nan nan nan nan nan nan nan nan nan nan nan nan nan nan nan nan nan nan nan nan nan nan nan nan
nan nan nan nan nan nan nan nan nan nan nan nan nan nan nan nan nan nan nan nan nan nan nan nan nan nan nan nan nan nan nan nan nan nan nan nan nan nan nan nan nan nan nan nan nan nan nan nan nan nan nan nan nan nan nan nan nan nan nan nan nan nan nan nan nan nan nan nan nan nan nan nan nan nan nan nan nan nan nan nan nan nan nan nan nan
nan nan nan nan nan nan nan nan nan nan nan nan nan nan nan nan nan nan nan nan nan nan nan nan nan nan nan nan nan nan nan nan nan nan nan nan nan nan nan nan nan nan nan nan nan nan nan nan nan nan nan nan nan nan nan nan nan nan nan nan nan nan nan nan nan nan nan nan nan nan nan nan nan nan nan nan nan nan nan nan nan nan nan nan nan
nan nan nan nan nan nan nan nan nan nan nan nan nan nan nan nan nan nan nan nan nan nan nan nan nan nan nan nan nan nan nan nan nan nan nan nan nan nan nan nan nan nan nan nan nan nan nan nan nan nan nan nan nan nan nan nan nan nan nan nan nan nan nan nan nan nan nan nan nan nan nan nan nan nan nan nan nan nan nan nan nan nan nan nan nan
nan nan nan nan nan nan nan nan nan nan nan nan nan nan nan nan nan nan nan nan nan nan nan nan nan nan nan nan nan nan nan nan nan nan nan nan nan nan nan nan nan nan nan nan nan nan nan nan nan nan nan nan nan nan nan nan nan nan nan nan nan nan nan nan nan nan nan nan nan nan nan nan nan nan nan nan nan nan nan nan nan nan nan nan nan
nan nan nan nan nan nan nan nan nan nan nan nan nan nan nan nan nan nan nan nan nan nan nan nan nan nan nan nan nan nan nan nan nan nan nan nan nan nan nan nan nan nan nan nan nan nan nan nan nan nan nan nan nan nan nan nan nan nan nan nan nan nan nan nan nan nan nan nan nan nan nan nan nan nan nan nan nan nan nan nan nan nan nan nan nan
nan nan nan nan nan nan nan nan nan nan nan nan nan nan nan nan nan nan nan nan nan nan nan nan nan nan nan nan nan nan nan nan nan nan nan nan nan nan nan nan nan nan nan nan nan nan nan nan nan nan nan nan nan nan nan nan nan nan nan nan nan nan nan nan nan nan nan nan nan nan nan nan nan nan nan nan nan nan nan nan nan nan nan nan nan
nan nan nan nan nan nan nan nan nan nan nan nan nan nan nan nan nan nan nan nan nan nan nan nan nan nan nan nan nan nan nan nan nan nan nan nan nan nan nan nan nan nan nan nan nan nan nan nan nan nan nan nan nan nan nan nan nan nan nan nan nan nan nan nan nan nan nan nan nan nan nan nan nan nan nan nan nan nan nan nan nan nan nan nan nan
nan nan nan nan nan nan nan nan nan nan nan nan nan nan nan nan nan nan nan nan nan nan nan nan nan nan nan nan nan nan nan nan nan nan nan nan nan nan nan nan nan nan nan nan nan nan nan nan nan nan nan nan nan nan nan nan nan nan nan nan nan nan nan nan nan nan nan nan nan nan nan nan nan nan nan nan nan nan nan nan nan nan nan nan nan
nan nan nan nan nan nan nan nan nan nan nan nan nan nan nan nan nan nan nan nan nan nan nan nan nan nan nan nan nan nan nan nan nan nan nan nan nan nan nan nan nan nan nan nan nan nan nan nan nan nan nan nan nan nan nan nan nan nan nan nan nan nan nan nan nan nan nan nan nan nan nan nan nan nan nan nan nan nan nan nan nan nan nan nan nan
nan nan nan nan nan nan nan nan nan nan nan nan nan nan nan nan nan nan nan nan nan nan nan nan nan nan nan nan nan nan nan nan nan nan nan nan nan nan nan nan nan nan nan nan nan nan nan nan nan nan nan nan nan nan nan nan nan nan nan nan nan nan nan nan nan nan nan nan nan nan nan nan nan nan nan nan nan nan nan nan nan nan nan nan nan
nan nan nan nan nan nan nan nan nan nan nan nan nan nan nan nan nan nan nan nan nan nan nan nan nan nan nan nan nan nan nan nan nan nan nan nan nan nan nan nan nan nan nan nan nan nan nan nan nan nan nan nan nan nan nan nan nan nan nan nan nan nan nan nan nan nan nan nan nan nan nan nan nan nan nan nan nan nan nan nan nan nan nan nan nan
Wind_Direction
263 248 249 243 258 267 269 258 251 255 268 243 239 243 255 246 264 252 248 265 265 276 269 266 270 279 294 282 309 286 283 300 304 293 320 332 28 358 277 339 9 22 11 33 47 14 344 356 346 341 339 344 340 3 341 321 325 316 310 330 331 307 297 303 302 307 306 305 304 322 323 301 309 307 302 300 310 311 308 306 312 322 345 4 2
259 246 244 246 255 258 262 261 256 249 262 265 250 247 250 254 249 260 260 244 256 272 262 274 259 266 280 283 273 274 296 279 324 300 307 316 349 0 343 335 350 10 356 355 346 13 339 338 344 350 340 346 346 351 340 323 330 321 332 300 286 295 303 309 313 306 309 305 322 316 317 326 325 299 297 314 326 321 329 331 336 338 330 313 329
256 250 243 245 246 253 249 254 253 246 254 253 261 258 246 255 261 276 281 278 262 252 275 284 269 263 250 250 254 266 263 287 276 275 292 304 319 0 332 321 337 337 342 334 343 332 338 328 342 347 353 342 344 346 344 329 300 293 302 314 327 323 329 321 312 320 323 322 316 320 317 306 305 312 320 336 336 337 330 330 314 293 304 324 343
252 255 250 252 258 253 246 247 256 259 260 253 255 263 257 264 253 253 258 275 282 277 269 269 273 271 261 272 276 280 289 284 287 288 290 298 303 308 290 271 285 310 307 321 326 332 321 309 326 343 330 315 304 302 303 327 330 326 317 304 308 310 313 317 315 311 316 324 321 327 325 326 325 325 335 328 334 328 333 343 336 322 322 351 1
249 256 253 249 258 255 258 251 249 253 254 257 269 266 269 260 256 246 249 261 271 276 266 260 263 266 273 273 273 269 275 280 282 294 296 294 296 300 292 300 311 307 309 285 280 287 306 304 304 300 314 325 315 326 330 339 337 321 315 326 337 343 340 323 325 333 333 331 328 330 333 340 347 350 338 338 344 348 342 335 327 334 333 333 339
249 254 254 250 245 254 259 258 256 253 247 246 254 263 259 259 259 259 253 253 250 253 264 267 264 272 269 271 273 272 272 275 273 275 285 293 293 289 288 293 295 293 294 298 300 300 289 302 307 296 301 310 312 311 316 306 298 329 339 346 334 326 322 337 343 343 344 348 345 351 349 3 3 352 345 347 355 351 341 339 335 333 329 321 319
249 252 254 253 249 247 255 258 256 258 254 247 247 248 262 267 269 258 262 257 270 266 255 259 262 272 269 261 269 267 268 278 274 277 278 278 275 276 282 288 293 295 297 299 289 301 306 293 295 293 294 302 302 301 305 309 321 313 320 324 326 332 340 346 345 343 344 344 346 352 354 349 340 343 354 2 13 8 3 324 313 322 323 316 309
244 248 250 251 256 253 246 249 253 250 253 252 244 251 251 252 259 263 251 244 244 262 271 256 262 269 266 269 265 259 264 265 267 267 263 270 278 281 275 251 259 268 281 284 294 297 303 316 327 315 308 301 295 289 286 282 280 284 293 298 300 302 303 303 309 316 323 330 332 338 332 336 344 349 358 338 322 303 306 317 323 292 291 298 300
223 224 231 244 249 251 251 247 247 252 250 256 258 249 248 252 253 254 262 261 264 262 273 276 258 252 250 247 256 272 264 264 258 260 271 268 269 270 272 285 278 282 291 296 296 296 290 298 304 306 298 311 328 317 294 288 287 284 278 276 279 282 289 296 303 306 310 312 317 316 322 324 329 336 330 323 314 301 287 276 277 282 287 284 292
230 225 227 221 219 232 246 245 247 248 246 248 251 254 251 249 254 257 253 253 248 248 250 266 273 270 265 265 262 260 255 251 265 281 273 277 279 271 266 260 254 251 260 270 267 273 279 280 279 243 267 299 318 315 308 305 299 289 280 276 275 277 278 279 281 285 287 293 295 291 289 291 288 282 272 265 259 266 264 264 261 269 272 286 294
255 243 235 233 240 227 217 233 243 244 240 235 228 234 237 244 241 237 238 238 239 242 243 244 245 253 270 272 266 269 263 249 217 235 293 294 285 274 270 269 264 254 248 260 264 263 266 265 262 273 294 293 297 313 319 314 301 294 292 285 280 279 278 282 285 284 283 282 282 281 279 277 275 273 270 265 273 267 266 268 269 272 280 280 284
246 242 241 240 241 237 240 234 224 233 232 237 237 238 239 234 241 245 243 238 232 225 231 237 235 233 238 238 248 253 258 242 238 235 240 240 237 251 272 274 274 278 282 275 269 265 264 267 271 267 262 251 252 291 305 305 298 295 298 299 293 292 289 283 273 269 273 275 281 285 282 280 279 278 277 274 271 269 275 275 278 277 276 281 285
245 242 240 239 243 236 236 246 244 234 231 228 238 243 246 246 247 246 244 242 236 235 236 240 245 243 244 250 256 256 254 239 238 240 239 237 235 235 246 251 250 249 250 262 274 282 287 280 274 265 264 250 248 243 263 279 291 295 276 268 272 281 290 295 299 296 280 274 267 273 280 277 280 285 285 281 279 278 279 281 281 280 280 280 281
243 246 244 240 239 235 234 240 242 243 240 235 236 238 240 242 247 250 250 247 249 249 244 244 247 249 249 250 252 251 249 239 237 236 237 236 233 236 243 243 248 251 253 250 249 257 259 264 269 273 273 268 266 256 253 263 271 273 274 273 274 277 291 311 318 326 313 296 289 280 277 277 279 277 276 279 279 278 273 274 276 279 284 288 282
244 245 245 246 247 245 240 239 239 242 242 232 232 236 236 241 243 244 246 248 248 251 250 247 249 251 249 249 251 250 248 238 240 237 237 235 232 240 246 247 248 250 251 254 260 261 262 265 267 271 272 272 270 261 262 258 265 272 277 276 275 276 275 275 282 285 282 284 283 283 278 276 272 269 270 270 271 276 281 282 280 283 284 285 286
247 245 243 245 246 247 244 240 240 244 244 237 229 232 235 237 240 244 248 248 245 244 247 248 250 253 252 252 253 252 247 238 239 238 236 236 234 249 253 256 255 256 257 256 257 260 260 258 262 267 266 265 257 252 256 260 260 261 264 266 271 270 269 271 280 273 266 263 265 264 265 265 269 277 279 274 272 273 271 275 276 279 277 276 277
248 247 244 241 242 244 247 247 245 243 244 248 248 244 239 240 239 240 245 247 249 247 247 248 249 254 254 251 255 255 249 241 241 241 239 237 244 251 251 253 257 256 258 259 259 259 260 261 260 261 263 262 255 249 247 249 260 258 258 259 263 264 267 268 269 269 270 275 279 279 276 268 265 263 261 266 273 279 278 275 279 280 281 278 277
255 252 249 249 249 246 245 247 246 245 245 247 247 244 242 242 244 245 246 248 250 250 249 250 251 252 251 250 251 255 252 247 245 244 243 239 242 249 251 254 257 260 261 262 264 264 261 258 261 261 259 259 252 249 246 251 259 257 258 258 259 263 266 262 262 262 256 257 256 257 260 259 260 264 267 263 264 278 277 276 269 271 276 279 275
254 255 256 264 266 255 248 245 244 244 244 246 247 245 242 243 246 248 249 250 252 253 254 253 255 258 260 258 256 254 251 249 245 245 245 244 244 250 251 254 256 256 259 262 264 266 268 263 261 262 262 259 254 252 250 253 260 260 263 264 263 261 260 256 258 260 263 262 264 264 266 266 267 265 264 260 257 265 273 272 269 267 268 268 269
263 263 261 265 271 268 254 246 245 247 250 250 250 248 245 244 246 249 249 248 249 251 253 254 254 254 254 255 254 253 254 252 248 246 248 246 243 249 253 254 255 256 258 260 263 263 265 267 263 260 258 255 254 253 255 257 262 262 264 266 264 262 260 259 261 262 263 266 269 270 269 267 268 270 267 265 268 271 276 284 279 276 278 277 275
270 271 271 270 271 274 267 258 256 258 259 256 252 248 244 245 245 246 247 247 249 247 247 251 254 255 255 254 254 253 254 256 254 250 253 254 248 248 254 254 255 256 261 261 264 264 264 264 264 261 259 257 256 252 254 256 262 265 267 266 268 267 264 265 262 257 266 268 267 267 268 269 266 267 272 271 271 271 273 280 286 284 282 279 276
nan nan nan nan nan nan nan nan 277 278 276 270 261 nan 251 246 244 245 246 249 251 250 nan nan nan 252 254 254 254 253 252 256 258 252 253 256 256 251 254 255 256 260 262 262 261 265 265 264 265 263 258 259 256 254 250 255 261 267 267 269 265 261 264 266 268 268 265 265 265 266 269 270 268 272 272 273 274 274 272 269 273 279 283 280 281
nan nan nan nan nan nan nan nan nan nan nan 277 276 273 270 nan nan nan nan nan nan nan nan nan nan nan nan nan nan 255 254 257 260 259 255 256 257 257 255 256 251 257 259 261 261 262 263 264 264 258 253 251 254 258 261 259 265 272 269 265 267 nan nan nan 270 267 265 265 265 265 264 266 266 265 267 267 266 265 nan 267 270 273 273 274 278
nan nan nan nan nan nan nan nan nan nan nan nan 277 277 278 280 277 266 nan nan nan nan nan nan nan nan nan nan nan nan nan nan 260 261 259 257 259 259 257 254 257 260 nan nan nan nan nan nan nan nan nan nan nan nan nan nan nan nan nan nan nan nan nan 272 266 nan nan 265 265 nan nan nan nan nan nan nan nan nan 268 270 nan nan 269 272 274
nan nan nan nan nan nan nan nan nan nan nan nan nan nan nan nan nan nan nan nan nan nan nan nan 266 264 nan nan nan nan nan nan nan nan nan nan nan nan nan nan nan nan nan nan nan nan nan nan nan nan nan nan nan nan nan nan nan nan nan nan nan nan 266 nan nan nan 264 nan nan nan nan nan nan nan nan nan nan nan nan nan nan nan nan nan nan
nan nan nan nan nan nan nan nan nan nan nan nan nan nan nan nan nan nan nan nan nan nan nan nan nan nan nan 265 265 nan nan nan nan nan nan nan nan nan nan nan nan nan nan nan nan nan nan nan nan nan nan nan nan nan nan 266 nan nan nan nan nan nan nan nan nan nan nan nan nan nan nan nan nan nan nan nan nan nan nan nan nan nan nan nan nan
nan nan nan nan nan nan nan nan nan nan nan nan nan nan nan nan nan nan nan nan nan nan nan nan nan nan nan nan nan 266 nan nan nan nan nan nan nan nan nan nan nan nan nan nan nan nan nan nan nan nan nan nan nan nan nan nan nan nan nan nan nan nan nan nan nan nan nan nan nan nan nan nan nan nan nan nan nan nan nan nan nan nan nan nan nan
nan nan nan nan nan nan nan nan nan nan nan nan nan nan nan nan nan nan nan nan nan nan nan nan nan nan 255 nan nan nan nan nan nan nan nan nan nan nan nan nan nan nan nan nan nan nan nan nan nan nan nan 269 269 268 nan nan nan nan nan nan nan nan nan nan nan nan nan nan nan nan nan nan nan nan nan nan nan nan nan nan nan nan nan nan nan
nan nan nan nan nan nan nan nan nan nan nan nan nan nan nan nan nan nan nan nan nan nan nan nan nan nan nan nan nan nan nan nan nan nan nan nan nan nan nan nan nan nan nan nan nan nan nan nan nan nan nan nan nan nan nan nan nan nan nan nan nan nan nan nan nan nan nan nan nan nan nan nan nan nan nan nan nan nan nan nan nan nan nan nan nan
nan nan nan nan nan nan nan nan nan nan nan nan nan nan nan nan nan nan nan nan nan nan nan nan nan nan nan nan nan nan nan nan nan nan nan nan nan nan nan nan nan nan nan nan nan nan nan nan nan nan nan nan nan nan nan nan nan nan nan nan nan nan nan nan nan nan nan nan nan nan nan nan nan nan nan nan nan nan nan nan nan nan nan nan nan
nan nan nan nan nan nan nan nan nan nan nan nan nan nan nan nan nan nan nan nan nan nan nan nan nan nan nan nan nan nan nan nan nan nan nan nan nan nan nan nan nan nan nan nan nan nan nan nan nan nan nan nan nan nan nan nan nan nan nan nan nan nan nan nan nan nan nan nan nan nan nan nan nan nan nan nan nan nan nan nan nan nan nan nan nan
nan nan nan nan nan nan nan nan nan nan nan nan nan nan nan nan nan nan nan nan nan nan nan nan nan nan nan nan nan nan nan nan nan nan nan nan nan nan nan nan nan nan nan nan nan nan nan nan nan nan nan nan nan nan nan nan nan nan nan nan nan nan nan nan nan nan nan nan nan nan nan nan nan nan nan nan nan nan nan nan nan nan nan nan nan
nan nan nan nan nan nan nan nan nan nan nan nan nan nan nan nan nan nan nan nan nan nan nan nan nan nan nan nan nan nan nan nan nan nan nan nan nan nan nan nan nan nan nan nan nan nan nan nan nan nan nan nan nan nan nan nan nan nan nan nan nan nan nan nan nan nan nan nan nan nan nan nan nan nan nan nan nan nan nan nan nan nan nan nan nan
nan nan nan nan nan nan nan nan nan nan nan nan nan nan nan nan nan nan nan nan nan nan nan nan nan nan nan nan nan nan nan nan nan nan nan nan nan nan nan nan nan nan nan nan nan nan nan nan nan nan nan nan nan nan nan nan nan nan nan nan nan nan nan nan nan nan nan nan nan nan nan nan nan nan nan nan nan nan nan nan nan nan nan nan nan
nan nan nan nan nan nan nan nan nan nan nan nan nan nan nan nan nan nan nan nan nan nan nan nan nan nan nan nan nan nan nan nan nan nan nan nan nan nan nan nan nan nan nan nan nan nan nan nan nan nan nan nan nan nan nan nan nan nan nan nan nan nan nan nan nan nan nan nan nan nan nan nan nan nan nan nan nan nan nan nan nan nan nan nan nan
nan nan nan nan nan nan nan nan nan nan nan nan nan nan nan nan nan nan nan nan nan nan nan nan nan nan nan nan nan nan nan nan nan nan nan nan nan nan nan nan nan nan nan nan nan nan nan nan nan nan nan nan nan nan nan nan nan nan nan nan nan nan nan nan nan nan nan nan nan nan nan nan nan nan nan nan nan nan nan nan nan nan nan nan nan
nan nan nan nan nan nan nan nan nan nan nan nan nan nan nan nan nan nan nan nan nan nan nan nan nan nan nan nan nan nan nan nan nan nan nan nan nan nan nan nan nan nan nan nan nan nan nan nan nan nan nan nan nan nan nan nan nan nan nan nan nan nan nan nan nan nan nan nan nan nan nan nan nan nan nan nan nan nan nan nan nan nan nan nan nan
nan nan nan nan nan nan nan nan nan nan nan nan nan nan nan nan nan nan nan nan nan nan nan nan nan nan nan nan nan nan nan nan nan nan nan nan nan nan nan nan nan nan nan nan nan nan nan nan nan nan nan nan nan nan nan nan nan nan nan nan nan nan nan nan nan nan nan nan nan nan nan nan nan nan nan nan nan nan nan nan nan nan nan nan nan
nan nan nan nan nan nan nan nan nan nan nan nan nan nan nan nan nan nan nan nan nan nan nan nan nan nan nan nan nan nan nan nan nan nan nan nan nan nan nan nan nan nan nan nan nan nan nan nan nan nan nan nan nan nan nan nan nan nan nan nan nan nan nan nan nan nan nan nan nan nan nan nan nan nan nan nan nan nan nan nan nan nan nan nan nan
nan nan nan nan nan nan nan nan nan nan nan nan nan nan nan nan nan nan nan nan nan nan nan nan nan nan nan nan nan nan nan nan nan nan nan nan nan nan nan nan nan nan nan nan nan nan nan nan nan nan nan nan nan nan nan nan nan nan nan nan nan nan nan nan nan nan nan nan nan nan nan nan nan nan nan nan nan nan nan nan nan nan nan nan nan
nan nan nan nan nan nan nan nan nan nan nan nan nan nan nan nan nan nan nan nan nan nan nan nan nan nan nan nan nan nan nan nan nan nan nan nan nan nan nan nan nan nan nan nan nan nan nan nan nan nan nan nan nan nan nan nan nan nan nan nan nan nan nan nan nan nan nan nan nan nan nan nan nan nan nan nan nan nan nan nan nan nan nan nan nan
nan nan nan nan nan nan nan nan nan nan nan nan nan nan nan nan nan nan nan nan nan nan nan nan nan nan nan nan nan nan nan nan nan nan nan nan nan nan nan nan nan nan nan nan nan nan nan nan nan nan nan nan nan nan nan nan nan nan nan nan nan nan nan nan nan nan nan nan nan nan nan nan nan nan nan nan nan nan nan nan nan nan nan nan nan
nan nan nan nan nan nan nan nan nan nan nan nan nan nan nan nan nan nan nan nan nan nan nan nan nan nan nan nan nan nan nan nan nan nan nan nan nan nan nan nan nan nan nan nan nan nan nan nan nan nan nan nan nan nan nan nan nan nan nan nan nan nan nan nan nan nan nan nan nan nan nan nan nan nan nan nan nan nan nan nan nan nan nan nan nan
nan nan nan nan nan nan nan nan nan nan nan nan nan nan nan nan nan nan nan nan nan nan nan nan nan nan nan nan nan nan nan nan nan nan nan nan nan nan nan nan nan nan nan nan nan nan nan nan nan nan nan nan nan nan nan nan nan nan nan nan nan nan nan nan nan nan nan nan nan nan nan nan nan nan nan nan nan nan nan nan nan nan nan nan nan
nan nan nan nan nan nan nan nan nan nan nan nan nan nan nan nan nan nan nan nan nan nan nan nan nan nan nan nan nan nan nan nan nan nan nan nan nan nan nan nan nan nan nan nan nan nan nan nan nan nan nan nan nan nan nan nan nan nan nan nan nan nan nan nan nan nan nan nan nan nan nan nan nan nan nan nan nan nan nan nan nan nan nan nan nan
nan nan nan nan nan nan nan nan nan nan nan nan nan nan nan nan nan nan nan nan nan nan nan nan nan nan nan nan nan nan nan nan nan nan nan nan nan nan nan nan nan nan nan nan nan nan nan nan nan nan nan nan nan nan nan nan nan nan nan nan nan nan nan nan nan nan nan nan nan nan nan nan nan nan nan nan nan nan nan nan nan nan nan nan nan
nan nan nan nan nan nan nan nan nan nan nan nan nan nan nan nan nan nan nan nan nan nan nan nan nan nan nan nan nan nan nan nan nan nan nan nan nan nan nan nan nan nan nan nan nan nan nan nan nan nan nan nan nan nan nan nan nan nan nan nan nan nan nan nan nan nan nan nan nan nan nan nan nan nan nan nan nan nan nan nan nan nan nan nan nan
nan nan nan nan nan nan nan nan nan nan nan nan nan nan nan nan nan nan nan nan nan nan nan nan nan nan nan nan nan nan nan nan nan nan nan nan nan nan nan nan nan nan nan nan nan nan nan nan nan nan nan nan nan nan nan nan nan nan nan nan nan nan nan nan nan nan nan nan nan nan nan nan nan nan nan nan nan nan nan nan nan nan nan nan nan
nan nan nan nan nan nan nan nan nan nan nan nan nan nan nan nan nan nan nan nan nan nan nan nan nan nan nan nan nan nan nan nan nan nan nan nan nan nan nan nan nan nan nan nan nan nan nan nan nan nan nan nan nan nan nan nan nan nan nan nan nan nan nan nan nan nan nan nan nan nan nan nan nan nan nan nan nan nan nan nan nan nan nan nan nan
nan nan nan nan nan nan nan nan nan nan nan nan nan nan nan nan nan nan nan nan nan nan nan nan nan nan nan nan nan nan nan nan nan nan nan nan nan nan nan nan nan nan nan nan nan nan nan nan nan nan nan nan nan nan nan nan nan nan nan nan nan nan nan nan nan nan nan nan nan nan nan nan nan nan nan nan nan nan nan nan nan nan nan nan nan
nan nan nan nan nan nan nan nan nan nan nan nan nan nan nan nan nan nan nan nan nan nan nan nan nan nan nan nan nan nan nan nan nan nan nan nan nan nan nan nan nan nan nan nan nan nan nan nan nan nan nan nan nan nan nan nan nan nan nan nan nan nan nan nan nan nan nan nan nan nan nan nan nan nan nan nan nan nan nan nan nan nan nan nan nan